[[{"header":{"parameterUnit":"m.s-1","parameterCategory":1,"la1":30.2992,"la2":30.254,"lo1":-89.0895,"lo2":-89.0443,"dy":0.0025,"dx":0.0025,"nx":19,"ny":19,"refTime":"2026-03-24T21:00:00:Z","depth":0,"parameterNumber":2,"parameterNumberName":"U-component_of_WINDS"},"data":[0,0,0,-3.2658,-3.2661,-3.2807,-3.2807,-3.2999,-3.3001,0,0,0,0,0,0,0,0,0,0,0,-3.2617,-3.2618,-3.2657,-3.2661,-3.2807,-3.2807,-3.2999,-3.3001,0,0,0,0,0,0,0,0,0,0,0,-3.2616,-3.2618,-3.2619,-3.2662,-3.2807,-3.2808,-3.2998,-3.2887,0,0,0,0,0,0,0,0,0,0,-3.2744,-3.2708,-3.2617,-3.2619,-3.2663,-3.2807,-3.2808,-3.2881,-3.2894,-3.2935,0,-3.2971,0,-3.2989,-3.3014,-3.3015,0,0,0,-3.266,-3.2698,-3.2735,-3.262,-3.2664,-3.2806,-3.2741,-3.2888,-3.2902,-3.2951,-3.2974,-3.2981,-3.2992,-3.3015,-3.3016,-3.3255,-3.3256,0,0,-3.2652,-3.2644,-3.2725,-3.2744,-3.2721,-3.2736,-3.2745,-3.2897,-3.2921,-3.2975,-3.2985,-3.2995,-3.3017,-3.3018,-3.3254,-3.3256,0,0,0,-3.263,-3.2639,-3.2672,-3.2737,-3.2762,-3.274,-3.2751,-3.2914,-3.2926,-3.2987,-3.2998,-3.3018,-3.302,-3.3253,-3.3255,-3.3304,0,0,0,-3.2625,-3.2626,-3.2669,-3.2666,-3.276,-3.284,-3.2765,-3.2915,-3.2933,-3.2997,-3.3018,-3.3022,-3.3252,-3.3254,-3.33,-3.3328,0,0,0,-3.2606,-3.2623,-3.2645,-3.2665,-3.2727,-3.2838,-3.2858,-3.2919,-3.2939,-3.3015,-3.3022,-3.3251,-3.3253,-3.3296,-3.3322,-3.3387,0,0,0,-3.2585,-3.2688,-3.2646,-3.2765,-3.2726,-3.2867,-3.2857,-3.2963,-3.3034,-3.3019,-3.3252,-3.3255,-3.3295,-3.3318,-3.3383,-3.344,-3.3463,0,0,-3.2711,-3.2703,-3.2774,-3.274,-3.2887,-3.2846,-3.3,-3.3073,-3.3088,-3.3199,-3.3205,-3.3301,-3.3322,-3.3387,-3.3599,-3.3617,0,0,0,-3.2811,-3.2861,-3.2902,-3.2968,-3.3026,-3.3078,-3.3128,-3.3155,-3.3249,-3.3143,-3.3344,-3.3356,-3.3395,-3.3422,-3.3437,-3.347,-3.3267,-3.3267,-3.3267,-3.2977,-3.299,-3.3107,-3.3138,-3.3203,-3.3253,-3.3307,-3.3353,-3.3348,-3.3395,-3.3427,-3.3554,-3.3586,-3.3597,-3.3632,-3.346,-3.346,-3.346,-3.346,-3.3161,-3.3234,-3.3224,-3.3335,-3.3348,-3.3442,-3.3495,-3.3488,-3.3577,-3.3531,-3.3565,-3.3511,-3.3617,-3.3647,-3.3464,-3.3463,-3.3463,-3.3463,-3.3462,-3.3269,-3.3306,-3.3337,-3.3434,-3.3509,-3.3537,-3.3623,-3.3633,-3.3643,-3.3677,-3.3712,-3.3711,-3.371,-3.3693,-3.3694,-3.3694,-3.3695,-3.3695,-3.3695,-3.3369,-3.3402,-3.3472,-3.3542,-3.3586,-3.3645,-3.3698,-3.3742,-3.3793,-3.3793,-3.3794,-3.3783,-3.3626,-3.3584,-3.3702,-3.3701,-3.37,-3.3699,-3.3699,-3.3547,-3.3509,-3.3617,-3.3661,-3.3743,-3.3816,-3.3828,-3.3917,-3.3955,-3.3997,-3.398,-3.3862,-3.3855,-3.3842,-3.3808,-3.3977,-3.3977,-3.3977,-3.3977,-3.3637,-3.3635,-3.3747,-3.3817,-3.3886,-3.3908,-3.4031,-3.4073,-3.4111,-3.4135,-3.4113,-3.407,-3.4057,-3.4057,-3.404,-3.4008,-3.4224,-3.4225,-3.4225,-3.3747,-3.3752,-3.3853,-3.3888,-3.3954,-3.401,-3.4126,-3.4207,-3.4242,-3.4235,-3.4154,-3.4144,-3.4074,-3.4051,-3.4039,-3.4013,-3.3955,0,0]},{"header":{"parameterUnit":"m.s-1","parameterCategory":1,"la1":30.2992,"la2":30.254,"lo1":-89.0895,"lo2":-89.0443,"dy":0.0025,"dx":0.0025,"nx":19,"ny":19,"refTime":"2026-03-24T21:00:00:Z","depth":0,"parameterNumber":3,"parameterNumberName":"V-component_of_WINDS"},"data":[0,0,0,1.461,1.4611,1.4646,1.4646,1.4689,1.469,0,0,0,0,0,0,0,0,0,0,0,1.4599,1.4599,1.461,1.4611,1.4646,1.4646,1.4689,1.469,0,0,0,0,0,0,0,0,0,0,0,1.4599,1.4599,1.4599,1.4611,1.4646,1.4646,1.4689,1.4663,0,0,0,0,0,0,0,0,0,0,1.4629,1.4618,1.4599,1.46,1.4611,1.4646,1.4646,1.4662,1.4665,1.4673,0,1.468,0,1.4686,1.4693,1.4693,0,0,0,1.4611,1.4616,1.4626,1.46,1.4611,1.4646,1.463,1.4663,1.4667,1.4676,1.4681,1.4683,1.4687,1.4693,1.4693,1.4741,1.4741,0,0,1.4609,1.4605,1.4624,1.4628,1.4624,1.4629,1.4631,1.4665,1.467,1.4681,1.4684,1.4687,1.4693,1.4693,1.4741,1.4741,0,0,0,1.4603,1.4603,1.4613,1.4627,1.4633,1.463,1.4633,1.4668,1.4672,1.4684,1.4688,1.4693,1.4694,1.474,1.4741,1.4747,0,0,0,1.4602,1.46,1.4612,1.461,1.4633,1.4651,1.4635,1.4669,1.4673,1.4688,1.4693,1.4694,1.474,1.474,1.4747,1.4751,0,0,0,1.4597,1.4599,1.4604,1.4609,1.4625,1.4651,1.4656,1.467,1.4676,1.4693,1.4694,1.474,1.474,1.4746,1.475,1.4762,0,0,0,1.4589,1.4609,1.4605,1.4628,1.4624,1.4655,1.4656,1.4679,1.4695,1.4694,1.474,1.4741,1.4746,1.4749,1.4761,1.4771,1.4775,0,0,1.4612,1.4612,1.4626,1.4623,1.4654,1.465,1.4682,1.47,1.4705,1.4728,1.4729,1.4747,1.475,1.4762,1.48,1.4803,0,0,0,1.4632,1.4642,1.4651,1.4667,1.4682,1.4694,1.4708,1.4715,1.4735,1.4716,1.4755,1.4757,1.4764,1.4769,1.4772,1.4778,1.4743,1.4743,1.4743,1.4657,1.4664,1.4688,1.4699,1.4713,1.4728,1.474,1.4751,1.4753,1.4762,1.4769,1.4791,1.4796,1.4798,1.4805,1.4775,1.4775,1.4775,1.4775,1.469,1.4706,1.4708,1.4733,1.4739,1.4759,1.4774,1.4774,1.4793,1.4786,1.4793,1.4783,1.4802,1.4807,1.4776,1.4775,1.4775,1.4775,1.4775,1.4707,1.4715,1.4724,1.4748,1.4765,1.4775,1.4793,1.4799,1.4803,1.481,1.4817,1.4817,1.4817,1.4813,1.4814,1.4814,1.4814,1.4814,1.4814,1.472,1.473,1.4746,1.4764,1.4775,1.479,1.4805,1.4815,1.4828,1.483,1.483,1.483,1.4803,1.4795,1.4815,1.4815,1.4815,1.4814,1.4814,1.475,1.4745,1.4769,1.478,1.4802,1.4818,1.4825,1.4846,1.4855,1.4864,1.4864,1.4843,1.4842,1.484,1.4834,1.4863,1.4863,1.4863,1.4863,1.4764,1.4765,1.4791,1.4808,1.4825,1.4834,1.486,1.4873,1.4884,1.489,1.4887,1.4879,1.4877,1.4878,1.4875,1.4869,1.4906,1.4907,1.4907,1.4782,1.4785,1.4807,1.4819,1.4837,1.4852,1.4877,1.4896,1.4907,1.4908,1.4895,1.4893,1.4881,1.4877,1.4876,1.4872,1.4861,0,0]}]]